Regional Weather Roundup
Issued by NWS

Home | Current Version | Previous Version | Graphics & Text | Print | Product List | Glossary On
Versions: 1 2 3 4 5 6 7 8 9 10 11 12 13 14 15 16 17 18 19 20 21 22 23 24 25 26 27 28 29 30 31 32 33 34 35 36 37 38 39 40 41 42 43 44 45 46 47 48 49 50
000
ASUS43 KLMK 070002
RWRKY
KENTUCKY REGIONAL WEATHER ROUNDUP
NATIONAL WEATHER SERVICE LOUISVILLE KY
700 PM EST FRI MAR 06 2015

NOTE "FAIR" INDICATES FEW OR NO CLOUDS BELOW 12,000 FEET
WITH NO SIGNIFICANT WEATHER AND/OR OBSTRUCTIONS TO VISIBILITY.

KYZ001>023-026-027-061>063-070>075-070100-
WESTERN AND SOUTH CENTRAL KENTUCKY

CITY           SKY/WX    TMP DP  RH WIND       PRES   REMARKS
PADUCAH        CLEAR     28  10  46 S5        30.43F WCI  23
HENDERSON      CLEAR     27   9  46 S8        30.41S WCI  18
OWENSBORO      CLEAR     26  10  50 S6        30.43S WCI  19
HOPKINSVILLE   NOT AVBL
BOWLING GREEN  CLEAR     27  11  51 SW3       30.46F
GLASGOW        NOT AVBL
$$

KYZ024-025-028>034-038-045-046-053-070100-
NORTH CENTRAL KENTUCKY

CITY           SKY/WX    TMP DP  RH WIND       PRES   REMARKS
LOUISVILLE/SDF CLEAR     30  13  49 S8        30.42S WCI  22
LOUISVILLE/LOU CLEAR     29  14  53 S7        30.42F WCI  22
FORT KNOX      NOT AVBL
$$

KYZ035>037-039>044-047>052-055>060-089>105-070100-
NORTHEAST KENTUCKY

CITY           SKY/WX    TMP DP  RH WIND       PRES   REMARKS
LEXINGTON      CLEAR     23  11  60 S7        30.41S WCI  15
COVINGTON      CLEAR     25   9  50 S7        30.37F WCI  17
FRANKFORT      CLEAR     24  12  60 S6        30.40F WCI  17
$$

KYZ054-064>069-076>088-106>120-070100-
SOUTHEAST KENTUCKY

CITY           SKY/WX    TMP DP  RH WIND       PRES   REMARKS
JACKSON        CLEAR     27  12  53 W3        30.39R
LONDON         FAIR      30  11  45 W5        30.41R WCI  25
SOMERSET       NOT AVBL
MIDDLESBORO    CLEAR     31  22  68 CALM      30.42R
MONTICELLO     CLEAR     28  14  55 SW5       30.46S WCI  23
$$



USA.gov is the U.S. government's official web portal to all federal, state and local government web resources and services.